Location: Niedergestelen
(46.3129°N, 7.7822°E)
Time: 13:28:55
(UTC+00:00)

COSMO-SKYMED 1 - Pass Details

Date: 01 December 2020
Orbit: 621 x 623 km, 97.9° (Epoch: 27 January)

Event Time Altitude Azimuth Distance (km) Brightness Sun altitude
Exits shadow 17:22:42 18° 28° (NNE) 1,537 4.2 -16.4°
Maximum altitude 17:25:46 53° 100° (E) 769 2.7 -16.9°
Drops below altitude 10° 17:30:00 10° 178° (S) 1,989 5.3 -17.7°
Sets 17:32:13 0° 183° (S) 2,890 6.2 -18.0°
